• în România
  • Lista ţărilor
  • Pe 7 zile
  • Temperatura apei
  • Hartă satelitară
  • Meteo pe hartă
  • Widget-uri
  • user-avatar
    Intrare

    Meteo pe oră la Canillo

    Astăzi, 26 Iunie, Luni

    Timp Temperatura Precipitaţii Vânt Presiune Umiditate
    00:00 +13°C° 0,6 mm 1 m/s 619 mmHg 88%
    01:00 +12°C° 0,1 mm 1 m/s 619 mmHg 87%
    02:00 +12°C° 0,1 mm 1 m/s 618 mmHg 87%
    03:00 +10°C° 0,1 mm 2 m/s 618 mmHg 86%
    04:00 +12°C° 0,1 mm 1 m/s 618 mmHg 81%
    05:00 +13°C° 0,1 mm 1 m/s 618 mmHg 75%
    06:00 +14°C° 0,1 mm 1 m/s 618 mmHg 69%
    07:00 +16°C° 0,1 mm 2 m/s 619 mmHg 61%
    08:00 +18°C° 0,1 mm 2 m/s 620 mmHg 53%
    09:00 +20°C° 0,1 mm 3 m/s 620 mmHg 44%
    10:00 +21°C° 0,2 mm 3 m/s 621 mmHg 44%
    11:00 +21°C° 0,2 mm 3 m/s 621 mmHg 43%
    12:00 +22°C° 0,2 mm 4 m/s 621 mmHg 42%
    13:00 +21°C° 0,7 mm 3 m/s 620 mmHg 46%
    14:00 +21°C° 0,7 mm 3 m/s 620 mmHg 50%
    15:00 +20°C° 0,7 mm 3 m/s 619 mmHg 54%
    16:00 +19°C° 0,8 mm 2 m/s 619 mmHg 58%
    17:00 +19°C° 0,8 mm 2 m/s 619 mmHg 61%
    18:00 +18°C° 0,8 mm 2 m/s 619 mmHg 65%
    19:00 +16°C° 0,2 mm 1 m/s 618 mmHg 72%
    20:00 +13°C° 0,2 mm 1 m/s 617 mmHg 79%
    21:00 +11°C° 0,2 mm 1 m/s 616 mmHg 86%
    22:00 +11°C° 0 mm 1 m/s 616 mmHg 86%
    23:00 +10°C° 0 mm 1 m/s 616 mmHg 85%

    Mâine, 27 Iunie, Marţi

    Timp Temperatura Precipitaţii Vânt Presiune Umiditate
    00:00 +10°C° 0 mm 1 m/s 616 mmHg 85%
    01:00 +10°C° 0 mm 1 m/s 616 mmHg 84%
    02:00 +10°C° 0 mm 1 m/s 616 mmHg 82%
    03:00 +10°C° 0 mm 1 m/s 616 mmHg 80%
    04:00 +11°C° 0 mm 1 m/s 616 mmHg 77%
    05:00 +13°C° 0 mm 1 m/s 617 mmHg 74%
    06:00 +14°C° 0 mm 1 m/s 617 mmHg 71%
    07:00 +16°C° 0 mm 2 m/s 618 mmHg 61%
    08:00 +18°C° 0 mm 3 m/s 619 mmHg 52%
    09:00 +21°C° 0 mm 3 m/s 619 mmHg 42%
    10:00 +22°C° 0 mm 3 m/s 619 mmHg 40%
    11:00 +23°C° 0 mm 4 m/s 619 mmHg 39%
    12:00 +23°C° 0 mm 4 m/s 619 mmHg 37%
    13:00 +23°C° 0,4 mm 4 m/s 619 mmHg 41%
    14:00 +22°C° 0,4 mm 4 m/s 618 mmHg 45%
    15:00 +21°C° 0,4 mm 4 m/s 617 mmHg 49%
    16:00 +20°C° 0,7 mm 3 m/s 617 mmHg 52%
    17:00 +19°C° 0,7 mm 3 m/s 616 mmHg 55%
    18:00 +18°C° 0,7 mm 3 m/s 616 mmHg 58%
    19:00 +16°C° 0,6 mm 2 m/s 615 mmHg 65%
    20:00 +13°C° 0,6 mm 2 m/s 615 mmHg 72%
    21:00 +11°C° 0,6 mm 1 m/s 614 mmHg 79%
    22:00 +10°C° 0,1 mm 1 m/s 614 mmHg 81%
    23:00 +10°C° 0,1 mm 1 m/s 614 mmHg 83%

    Poimâine, 28 Iunie, Miercuri

    Timp Temperatura Precipitaţii Vânt Presiune Umiditate
    00:00 +9°C° 0,1 mm 1 m/s 613 mmHg 85%
    01:00 +9°C° 0,1 mm 1 m/s 613 mmHg 86%
    02:00 +8°C° 0,1 mm 1 m/s 613 mmHg 86%
    03:00 +8°C° 0,1 mm 1 m/s 613 mmHg 87%
    04:00 +9°C° 0,1 mm 1 m/s 613 mmHg 84%
    05:00 +10°C° 0,1 mm 1 m/s 613 mmHg 82%
    06:00 +11°C° 0,1 mm 1 m/s 614 mmHg 80%
    07:00 +12°C° 0,2 mm 2 m/s 614 mmHg 75%
    08:00 +12°C° 0,2 mm 2 m/s 614 mmHg 70%
    09:00 +12°C° 0,2 mm 3 m/s 615 mmHg 66%
    10:00 +13°C° 0,4 mm 3 m/s 615 mmHg 62%
    11:00 +14°C° 0,4 mm 3 m/s 615 mmHg 58%
    12:00 +15°C° 0,4 mm 4 m/s 615 mmHg 55%
    13:00 +14°C° 0,8 mm 4 m/s 615 mmHg 57%
    14:00 +14°C° 0,8 mm 4 m/s 614 mmHg 59%
    15:00 +14°C° 0,8 mm 4 m/s 614 mmHg 62%
    16:00 +13°C° 0,9 mm 4 m/s 614 mmHg 64%
    17:00 +12°C° 0,9 mm 3 m/s 614 mmHg 67%
    18:00 +11°C° 0,9 mm 3 m/s 614 mmHg 69%
    19:00 +10°C° 0,5 mm 3 m/s 614 mmHg 74%
    20:00 +9°C° 0,5 mm 3 m/s 614 mmHg 79%
    21:00 +7°C° 0,5 mm 2 m/s 614 mmHg 85%
    22:00 +7°C° 0,1 mm 2 m/s 613 mmHg 86%
    23:00 +6°C° 0,1 mm 2 m/s 613 mmHg 87%

    29 Iunie, Joi

    Timp Temperatura Precipitaţii Vânt Presiune Umiditate
    00:00 +5°C° 0,1 mm 2 m/s 613 mmHg 89%
    01:00 +5°C° 0 mm 2 m/s 613 mmHg 89%
    02:00 +4°C° 0 mm 2 m/s 613 mmHg 89%
    03:00 +4°C° 0 mm 2 m/s 612 mmHg 89%
    04:00 +4°C° 0 mm 2 m/s 613 mmHg 85%
    05:00 +5°C° 0 mm 2 m/s 613 mmHg 82%
    06:00 +5°C° 0 mm 2 m/s 614 mmHg 78%
    07:00 +7°C° 0 mm 2 m/s 615 mmHg 69%
    08:00 +9°C° 0 mm 2 m/s 616 mmHg 60%
    09:00 +13°C° 0 mm 2 m/s 617 mmHg 51%
    10:00 +12°C° 0,3 mm 2 m/s 617 mmHg 53%
    11:00 +11°C° 0,3 mm 3 m/s 617 mmHg 55%
    12:00 +11°C° 0,3 mm 3 m/s 617 mmHg 56%
    13:00 +11°C° 0,8 mm 3 m/s 617 mmHg 58%
    14:00 +11°C° 0,8 mm 3 m/s 617 mmHg 59%
    15:00 +11°C° 0,8 mm 3 m/s 617 mmHg 61%
    16:00 +10°C° 0,5 mm 3 m/s 617 mmHg 62%
    17:00 +10°C° 0,5 mm 3 m/s 617 mmHg 64%
    18:00 +9°C° 0,5 mm 2 m/s 617 mmHg 66%
    19:00 +7°C° 0,2 mm 2 m/s 616 mmHg 72%
    20:00 +6°C° 0,2 mm 1 m/s 616 mmHg 79%
    21:00 +4°C° 0,2 mm 1 m/s 615 mmHg 85%
    22:00 +4°C° 0 mm 1 m/s 615 mmHg 87%
    23:00 +3°C° 0 mm 1 m/s 615 mmHg 88%

    30 Iunie, Vineri

    Timp Temperatura Precipitaţii Vânt Presiune Umiditate
    00:00 +3°C° 0 mm 1 m/s 615 mmHg 90%
    01:00 +2°C° 0 mm 1 m/s 615 mmHg 91%
    02:00 +2°C° 0 mm 1 m/s 614 mmHg 92%
    03:00 +1°C° 0 mm 1 m/s 614 mmHg 93%
    04:00 +2°C° 0 mm 0 m/s 615 mmHg 88%
    05:00 +3°C° 0 mm 0 m/s 616 mmHg 83%
    06:00 +5°C° 0 mm 0 m/s 617 mmHg 78%
    07:00 +8°C° 0 mm 1 m/s 618 mmHg 68%
    08:00 +8°C° 0 mm 2 m/s 619 mmHg 59%
    09:00 +10°C° 0 mm 2 m/s 619 mmHg 49%
    10:00 +11°C° 0,1 mm 3 m/s 620 mmHg 46%
    11:00 +12°C° 0,1 mm 3 m/s 620 mmHg 43%
    12:00 +13°C° 0,1 mm 3 m/s 620 mmHg 40%
    13:00 +13°C° 0,4 mm 3 m/s 620 mmHg 41%
    14:00 +13°C° 0,4 mm 3 m/s 620 mmHg 43%
    15:00 +13°C° 0,4 mm 3 m/s 620 mmHg 44%
    16:00 +13°C° 0,5 mm 2 m/s 619 mmHg 50%
    17:00 +12°C° 0,5 mm 2 m/s 619 mmHg 57%
    18:00 +10°C° 0,5 mm 2 m/s 619 mmHg 63%
    19:00 +8°C° 0,3 mm 2 m/s 619 mmHg 72%
    20:00 +7°C° 0,3 mm 1 m/s 618 mmHg 80%
    21:00 +5°C° 0,3 mm 1 m/s 618 mmHg 89%
    22:00 +5°C° 0 mm 1 m/s 618 mmHg 89%
    23:00 +4°C° 0 mm 2 m/s 618 mmHg 89%

    1 Iulie, Sâmbătă

    Timp Temperatura Precipitaţii Vânt Presiune Umiditate
    00:00 +4°C° 0 mm 2 m/s 618 mmHg 90%
    01:00 +4°C° 0 mm 2 m/s 618 mmHg 90%
    02:00 +3°C° 0 mm 2 m/s 618 mmHg 90%
    03:00 +3°C° 0 mm 2 m/s 617 mmHg 90%
    04:00 +4°C° 0,1 mm 2 m/s 618 mmHg 88%
    05:00 +5°C° 0,1 mm 2 m/s 619 mmHg 85%
    06:00 +6°C° 0,1 mm 2 m/s 619 mmHg 83%
    07:00 +7°C° 0,1 mm 2 m/s 620 mmHg 78%
    08:00 +8°C° 0,1 mm 3 m/s 621 mmHg 72%
    09:00 +10°C° 0,1 mm 3 m/s 622 mmHg 67%
    10:00 +10°C° 0,1 mm 3 m/s 622 mmHg 64%
    11:00 +11°C° 0,1 mm 3 m/s 622 mmHg 62%
    12:00 +11°C° 0,1 mm 3 m/s 623 mmHg 60%
    13:00 +12°C° 0 mm 3 m/s 623 mmHg 56%
    14:00 +13°C° 0 mm 4 m/s 623 mmHg 52%
    15:00 +14°C° 0 mm 4 m/s 624 mmHg 48%
    16:00 +13°C° 0 mm 4 m/s 623 mmHg 52%
    17:00 +12°C° 0 mm 4 m/s 623 mmHg 57%
    18:00 +11°C° 0 mm 3 m/s 623 mmHg 61%
    19:00 +9°C° 0 mm 3 m/s 623 mmHg 69%
    20:00 +7°C° 0 mm 3 m/s 623 mmHg 77%
    21:00 +5°C° 0 mm 2 m/s 622 mmHg 85%
    22:00 +5°C° 0 mm 2 m/s 622 mmHg 86%
    23:00 +5°C° 0 mm 2 m/s 622 mmHg 86%
    Arată mai mult